GFSNIL_sfc_thetae_003.txt.gz
Theta_e
303 303 302 301 298 294 294 295 295 295 295 295 295 295 295 294 293 293 293 292 292 294
299 297 295 293 294 294 295 295 294 294 293 294 294 295 294 293 292 292 292 293 293 293
294 293 294 295 293 293 293 293 293 293 294 294 294 293 293 292 292 291 291 292 291 291
293 292 291 292 292 292 292 293 293 293 293 293 292 292 292 291 290 290 290 289 289 289
291 290 290 291 292 292 291 293 292 292 292 292 292 291 290 289 288 288 287 288 287 287
289 289 289 290 290 291 292 292 291 292 291 291 290 290 289 288 288 287 287 286 286 287
289 289 290 289 290 290 291 290 290 290 290 290 289 288 288 287 286 285 285 285 285 284
291 292 291 290 290 290 290 290 290 289 287 287 287 287 285 284 283 282 282 283 283 283
294 293 292 291 291 290 288 287 286 285 285 284 286 288 288 285 282 282 281 280 281 282
295 294 293 292 289 287 285 284 283 282 282 282 283 287 287 286 282 281 280 280 280 281
294 292 289 288 287 284 282 281 281 281 281 281 283 286 286 285 282 280 280 280 280 280
289 287 286 285 282 281 280 280 280 281 281 280 280 284 285 284 281 280 280 281 282 282
287 286 284 282 280 280 280 280 280 280 281 282 278 282 283 283 281 280 280 281 282 283
286 284 283 281 280 279 279 279 274 273 276 278 279 279 282 283 280 280 280 280 280 281

GFSNIL_sfc_thetae_006.txt.gz
Theta_e
301 300 300 298 297 294 295 294 294 294 294 295 295 294 295 296 295 294 291 291 291 292
294 295 292 292 292 293 293 294 293 295 295 296 297 297 294 292 291 292 291 290 290 291
291 292 292 291 291 291 293 295 296 297 297 297 295 294 293 291 290 290 290 290 289 290
290 291 290 290 290 291 292 293 294 294 293 293 293 292 290 289 289 288 288 288 288 288
290 289 288 289 290 291 291 292 292 292 292 291 291 290 289 288 288 286 285 286 286 287
288 287 288 288 289 290 290 290 290 290 290 290 290 289 288 287 286 286 286 286 285 285
287 287 288 288 289 290 290 289 289 289 290 290 289 287 287 286 284 283 283 283 283 283
290 290 290 289 289 291 290 289 289 288 286 285 285 286 284 283 282 281 281 282 282 282
294 293 292 293 293 292 289 288 286 284 283 282 284 287 287 285 281 281 281 280 281 281
295 294 293 292 291 287 284 283 282 281 281 281 281 286 286 286 282 281 280 280 279 280
292 290 288 286 284 282 281 280 280 280 280 280 281 285 285 284 281 280 280 280 280 280
286 286 285 282 280 280 279 279 279 280 279 280 280 283 283 282 278 278 279 281 281 282
287 285 282 281 280 279 278 278 279 280 279 280 277 281 282 281 280 278 278 279 280 282
285 283 282 280 279 278 278 277 272 271 274 276 278 278 281 282 280 279 278 279 279 280

GFSNIL_sfc_thetae_009.txt.gz
Theta_e
296 296 298 297 295 294 292 291 292 293 296 297 297 297 298 297 295 295 294 293 292 290
293 293 294 291 291 290 291 293 293 294 296 297 296 296 296 294 293 293 292 291 290 289
292 291 291 290 290 290 291 293 295 296 296 297 296 295 294 292 291 290 290 290 288 288
291 290 288 289 289 290 292 293 293 293 294 293 292 292 291 289 289 288 287 287 287 287
290 288 287 288 290 291 291 292 291 291 291 290 290 289 288 287 287 286 285 285 285 285
288 286 287 288 290 291 290 290 290 290 289 289 289 288 287 286 286 285 285 284 284 284
286 286 287 288 289 290 291 289 289 289 289 288 286 286 285 284 283 282 282 282 282 281
290 290 289 291 292 292 292 291 289 287 285 284 284 284 283 282 282 281 281 281 281 281
295 295 294 294 293 291 290 287 285 283 282 281 283 286 287 285 282 281 280 279 280 280
294 294 293 293 291 286 283 283 281 281 281 281 281 284 285 285 281 280 280 279 279 280
288 287 285 284 282 281 280 280 279 279 280 280 281 284 284 283 280 278 279 280 280 280
287 286 283 281 280 279 278 279 279 280 280 279 279 282 282 281 276 277 277 280 280 280
284 283 281 280 279 279 279 279 279 279 278 279 276 280 281 281 278 278 278 279 280 281
284 283 281 279 279 278 277 277 272 271 273 275 277 277 281 282 280 278 278 278 279 280

GFSNIL_sfc_thetae_012.txt.gz
Theta_e
295 294 294 294 293 292 290 290 292 293 294 294 294 295 297 296 295 294 292 290 291 292
293 293 292 291 290 289 290 293 293 293 294 294 297 297 296 294 292 292 292 291 291 291
293 294 291 289 289 289 291 293 293 293 293 293 293 295 295 294 293 292 291 291 290 289
294 293 290 287 288 289 291 292 292 292 292 293 292 292 291 290 289 288 288 287 287 286
293 289 287 287 288 289 290 291 290 291 290 290 289 289 288 287 287 286 284 284 284 284
288 285 285 287 288 290 290 290 290 290 290 289 289 288 286 285 284 284 283 283 282 282
286 285 286 288 290 291 291 291 291 290 288 287 285 284 284 284 283 282 282 282 282 281
290 290 291 291 291 292 291 291 289 286 285 284 283 283 283 283 282 281 281 282 281 281
295 294 292 293 292 292 292 291 286 282 281 281 282 285 286 286 282 282 281 280 280 280
291 290 289 290 288 284 282 281 280 280 280 281 281 284 284 284 281 281 280 279 279 280
288 287 286 283 281 281 281 280 279 279 280 280 280 282 282 282 279 278 278 279 279 279
283 283 282 281 280 280 279 279 279 280 279 278 278 281 282 281 276 276 277 279 280 280
282 281 280 279 278 279 278 279 280 278 278 278 276 279 281 281 278 277 278 278 280 281
282 280 279 278 278 277 277 277 273 271 273 275 277 276 280 281 279 278 278 279 279 280

GFSNIL_sfc_thetae_015.txt.gz
Theta_e
304 303 302 301 301 299 298 299 300 301 301 301 302 301 299 296 295 293 292 291 291 291
302 302 301 301 299 297 298 299 300 302 301 300 300 298 297 296 293 293 293 293 293 292
301 301 300 298 296 296 298 300 300 300 298 298 298 298 297 297 297 295 295 294 294 293
300 299 296 294 295 296 298 298 296 295 295 295 294 295 295 295 294 294 293 293 292 292
297 294 293 293 294 295 294 295 295 296 295 293 294 293 292 291 291 290 289 290 290 289
293 292 292 295 296 296 296 296 295 294 293 291 290 289 289 288 288 288 288 288 288 287
293 292 295 296 296 296 296 295 295 293 291 289 288 287 287 287 287 287 287 287 287 286
295 295 295 295 294 295 294 294 295 292 288 287 286 286 287 287 287 286 286 286 285 285
292 292 293 293 294 294 292 288 287 286 285 285 285 284 285 285 285 284 283 283 283 284
292 292 291 289 288 287 286 286 285 285 285 285 285 283 283 283 283 283 283 282 282 282
289 287 287 287 286 285 285 285 284 284 285 284 283 282 282 282 283 283 282 282 283 282
287 286 286 285 284 284 284 284 284 284 283 282 282 281 281 282 282 282 281 282 283 283
286 285 284 284 284 284 284 283 283 282 282 281 281 281 281 281 281 280 280 282 283 282
285 285 285 284 284 283 283 282 281 281 281 281 281 281 280 280 281 280 280 281 282 283

GFSNIL_sfc_thetae_021.txt.gz
Theta_e
313 310 309 308 306 304 303 304 306 306 306 304 304 303 302 301 300 300 299 296 297 296
310 309 307 306 304 303 304 303 304 305 304 303 301 300 299 299 299 298 298 298 297 296
308 307 305 303 302 302 303 304 303 302 302 299 299 299 298 298 298 297 297 297 296 296
305 304 303 302 301 302 302 301 300 300 298 299 297 297 296 296 295 295 295 296 295 295
303 303 302 301 301 301 299 300 300 299 297 297 296 296 295 294 294 293 293 293 293 293
302 302 300 300 300 300 299 299 299 298 297 296 296 294 293 292 291 291 291 291 290 290
300 298 298 299 299 297 297 296 295 295 294 293 292 292 291 291 290 289 290 290 290 290
298 297 297 297 296 295 295 294 293 292 292 292 291 290 289 288 287 287 287 288 289 290
297 296 295 295 294 293 292 292 292 291 291 291 290 284 284 284 285 285 286 286 287 288
295 294 294 293 292 291 291 291 290 290 290 290 290 284 284 283 285 284 285 286 287 286
294 293 293 291 291 290 291 290 290 290 289 289 288 285 283 283 284 284 285 285 285 285
293 293 292 290 290 290 290 290 289 289 288 287 287 286 284 283 283 283 282 283 284 284
293 292 291 290 290 290 290 289 289 288 287 285 285 285 284 283 283 281 281 283 283 283
294 292 291 290 291 290 289 289 288 287 287 286 286 285 284 283 282 281 281 281 282 284

GFSNIL_sfc_thetae_027.txt.gz
Theta_e
302 302 300 299 297 296 295 296 297 298 297 296 296 296 297 296 297 295 293 292 293 295
301 300 297 296 296 295 296 298 296 296 295 295 295 295 298 295 293 293 292 291 292 294
297 298 297 296 296 296 296 296 295 295 295 295 295 295 294 293 293 292 290 292 291 292
296 297 296 295 294 295 295 296 295 296 295 295 294 293 292 291 292 292 289 289 289 289
296 295 294 293 294 294 294 295 294 293 291 293 293 292 291 290 289 286 284 284 284 284
294 293 292 293 294 294 293 292 291 290 288 289 289 288 287 286 285 284 284 283 283 283
293 293 292 292 293 292 292 290 288 288 288 289 288 287 286 286 283 283 283 283 283 283
294 293 293 293 292 292 291 289 288 288 287 287 287 285 283 282 281 281 281 282 282 283
294 294 293 292 291 291 288 287 287 286 286 285 286 285 285 283 280 281 280 279 280 281
295 294 294 294 292 289 286 285 285 285 286 284 283 285 285 284 281 280 279 278 279 279
294 293 293 293 291 287 286 284 284 284 285 283 284 287 287 285 280 280 280 279 279 278
293 293 293 289 288 288 286 285 284 285 283 282 282 286 286 284 279 279 279 280 280 280
293 291 289 288 289 288 286 285 285 283 282 284 281 284 285 282 277 274 278 278 279 280
291 291 291 289 287 285 284 283 280 279 280 281 282 280 283 282 278 277 277 276 277 278